Location: Luz Observatory
(34.5000°N, 117.2833°W)
Time: 06:07:40
(UTC-08:00)

Cosmos 1484 Rocket - Visible Passes

Search period start: 06 March 2015 00:00
Search period end: 16 March 2015 01:00
Orbit: 511 x 570 km, 97.4° (Epoch: 05 March)

Date Brightness Start Highest point End Pass type
(mag) Time Alt. Az. Time Alt. Az. Time Alt. Az.
06 Mar 3.8 18:21:00 10° SE 18:24:13 26° ENE 18:27:29 10° NNE visible
06 Mar 5.6 19:56:10 10° SW 19:58:51 17° W 20:01:22 10° NW visible
07 Mar 4.0 18:14:16 10° ESE 18:17:13 21° ENE 18:20:12 10° NNE visible
07 Mar 5.3 19:48:43 10° SW 19:51:45 21° W 19:54:39 10° NW visible
08 Mar 5.0 20:41:21 10° SSW 20:44:39 25° W 20:47:50 10° NW visible
09 Mar 4.6 20:34:04 10° SSW 20:37:33 31° W 20:40:58 10° NW visible
10 Mar 4.2 20:26:48 10° SSW 20:30:27 38° W 20:34:02 10° NNW visible
11 Mar 3.7 20:19:36 10° S 20:23:21 47° W 20:27:02 10° NNW visible
12 Mar 3.3 20:12:27 10° S 20:16:15 60° W 20:20:01 10° NNW visible
13 Mar 2.8 20:05:19 10° S 20:09:10 76° WSW 20:12:58 10° NNW visible
14 Mar 2.6 19:58:14 10° SSE 20:02:04 85° E 20:05:52 10° N visible
15 Mar 2.6 19:51:11 10° SSE 19:54:57 68° ENE 19:58:43 10° N visible
